This is the latest recevied weather packets stored in our database for station/object 9W2EXL-13. If no packets are shown the sender has not sent any weather packets the latest 10 day(s).
| Time | Temp. | Humidity | Pressure | Rain* | Wind** | Luminosity | Snow |
|---|---|---|---|---|---|---|---|
| 1788074488 | 34.44° C | 81% | 1009.6 hPa | - | - | - | - |
| 1788073572 | 34.44° C | 82% | 1010 hPa | - | - | - | - |
| 1788072672 | 33.89° C | 82% | 1010.2 hPa | - | - | - | - |
| 1788071772 | 33.89° C | 83% | 1010.4 hPa | - | - | - | - |
| 1788068172 | 34.44° C | 81% | 1011 hPa | - | - | - | - |
| 1788066382 | 33.89° C | 84% | 1011.4 hPa | - | - | - | - |
| 1788064571 | 33.33° C | 85% | 1011.6 hPa | - | - | - | - |
| 1788063671 | 32.78° C | 88% | 1011.7 hPa | - | - | - | - |
| 1788062771 | 32.78° C | 90% | 1011.8 hPa | - | - | - | - |
| 1788061871 | 32.22° C | 91% | 1012.1 hPa | - | - | - | - |
| 1788060971 | 32.22° C | 91% | 1012.4 hPa | - | - | - | - |
| 1788060071 | 31.67° C | 92% | 1012.6 hPa | - | - | - | - |
| 1788059171 | 31.67° C | 93% | 1012.6 hPa | - | - | - | - |
| 1788056470 | 31.11° C | 95% | 1012.9 hPa | - | - | - | - |
| 1788055570 | 31.11° C | 97% | 1012.9 hPa | - | - | - | - |
| 1788054670 | 31.11° C | 98% | 1012.9 hPa | - | - | - | - |
| 1788052870 | 30.56° C | 100% | 1012.7 hPa | - | - | - | - |
| 1788050170 | 30° C | 100% | 1012.4 hPa | - | - | - | - |
| 1788049270 | 29.44° C | 100% | 1011.9 hPa | - | - | - | - |
| 1788048370 | 29.44° C | 100% | 1011.9 hPa | - | - | - | - |
| 1788047469 | 29.44° C | 100% | 1011.7 hPa | - | - | - | - |
| 1788046569 | 29.44° C | 100% | 1011.7 hPa | - | - | - | - |
| 1788044769 | 29.44° C | 100% | 1011.4 hPa | - | - | - | - |
| 1788042069 | 29.44° C | 100% | 1011.1 hPa | - | - | - | - |
| 1788041169 | 29.44° C | 100% | 1011 hPa | - | - | - | - |
* Rain since midnight (hover to see other rain measurements)
** Current wind speed in m/s (hover to see current wind gust speed)